Time,TemperatureF,DewpointF,PressureIn,WindDirection,WindDirectionDegrees,WindSpeedMPH,WindSpeedGustMPH,Humidity,HourlyPrecipIn,Conditions,Clouds,dailyrainin,SoftwareType,DateUTC
2013-09-01 00:01:00,68.3,64.2,29.82,WNW,287,0.0,0.0,87,-99.99,,,0.00,1-wire,2013-09-01 05:01:00,
2013-09-01 00:14:00,68.2,64.2,29.84,North,355,0.0,0.0,87,-99.99,,,0.00,1-wire,2013-09-01 05:14:00,
2013-09-01 00:19:00,68.2,64.2,29.84,North,355,0.0,0.0,87,-99.99,,,0.00,1-wire,2013-09-01 05:19:00,
2013-09-01 00:24:00,68.0,63.9,29.84,NNW,344,0.0,0.0,87,-99.99,,,0.00,1-wire,2013-09-01 05:24:00,
2013-09-01 00:29:00,68.0,64.1,29.85,NNW,344,0.0,0.0,87,-99.99,,,0.00,1-wire,2013-09-01 05:29:00,
2013-09-01 00:34:00,67.5,63.6,29.84,NNW,344,0.0,0.0,87,-99.99,,,0.00,1-wire,2013-09-01 05:34:00,
2013-09-01 00:39:00,67.4,63.6,29.84,NNW,331,0.0,0.0,87,-99.99,,,0.00,1-wire,2013-09-01 05:39:00,
2013-09-01 00:44:00,67.8,64.0,29.84,NNW,331,0.0,0.0,88,-99.99,,,0.00,1-wire,2013-09-01 05:44:00,
2013-09-01 00:49:00,67.7,64.0,29.85,NNW,331,0.0,0.0,88,-99.99,,,0.00,1-wire,2013-09-01 05:49:00,
2013-09-01 00:54:00,67.0,63.2,29.84,NNW,337,0.0,0.0,88,-99.99,,,0.00,1-wire,2013-09-01 05:54:00,
2013-09-01 01:00:00,67.3,63.7,29.84,NNW,337,0.0,0.0,88,-99.99,,,0.00,1-wire,2013-09-01 06:00:00,
2013-09-01 01:06:00,67.2,63.6,29.84,North,353,0.0,0.0,88,-99.99,,,0.00,1-wire,2013-09-01 06:06:00,
2013-09-01 01:12:00,67.2,63.8,29.82,North,353,0.0,0.0,89,-99.99,,,0.00,1-wire,2013-09-01 06:12:00,
2013-09-01 01:18:00,67.5,64.2,29.83,North,353,0.0,0.0,89,-99.99,,,0.00,1-wire,2013-09-01 06:18:00,
2013-09-01 01:24:00,67.4,64.0,29.82,NNW,330,0.0,0.0,89,-99.99,,,0.00,1-wire,2013-09-01 06:24:00,
2013-09-01 01:30:00,67.4,64.2,29.82,NNW,330,0.0,0.0,89,-99.99,,,0.00,1-wire,2013-09-01 06:30:00,
2013-09-01 01:36:00,67.5,64.2,29.82,NNE,12,0.0,0.0,89,-99.99,,,0.00,1-wire,2013-09-01 06:36:00,
2013-09-01 01:42:00,67.6,64.2,29.82,NNE,12,0.0,0.0,89,-99.99,,,0.00,1-wire,2013-09-01 06:42:00,
2013-09-01 01:48:00,67.4,64.1,29.82,NNE,12,0.0,0.0,89,-99.99,,,0.00,1-wire,2013-09-01 06:48:00,
2013-09-01 01:54:00,67.2,64.2,29.82,NNE,22,0.0,3.0,90,-99.99,,,0.00,1-wire,2013-09-01 06:54:00,
2013-09-01 02:00:00,67.5,64.7,29.79,NNE,22,0.0,0.0,91,-99.99,,,0.00,1-wire,2013-09-01 07:00:00,
2013-09-01 02:06:00,67.6,64.8,29.79,NNE,19,0.0,3.0,91,-99.99,,,0.00,1-wire,2013-09-01 07:06:00,
2013-09-01 02:12:00,67.6,64.8,29.79,NNE,19,0.0,0.0,91,-99.99,,,0.00,1-wire,2013-09-01 07:12:00,
2013-09-01 02:18:00,67.3,64.7,29.79,NNE,19,0.0,3.0,91,-99.99,,,0.00,1-wire,2013-09-01 07:18:00,
2013-09-01 02:24:00,67.5,64.9,29.78,SE,128,0.0,3.0,91,-99.99,,,0.00,1-wire,2013-09-01 07:24:00,
2013-09-01 02:30:00,67.7,65.3,29.79,SE,128,0.0,3.0,92,-99.99,,,0.00,1-wire,2013-09-01 07:30:00,
2013-09-01 02:36:00,67.9,65.6,29.79,SE,132,0.0,3.0,92,-99.99,,,0.00,1-wire,2013-09-01 07:36:00,
2013-09-01 02:42:00,68.0,65.7,29.79,SE,132,1.0,3.0,93,-99.99,,,0.00,1-wire,2013-09-01 07:42:00,
2013-09-01 02:48:00,68.1,65.9,29.79,SE,132,0.0,3.0,92,-99.99,,,0.00,1-wire,2013-09-01 07:48:00,
2013-09-01 02:54:00,68.2,65.7,29.79,SE,135,0.0,3.0,92,-99.99,,,0.00,1-wire,2013-09-01 07:54:00,
2013-09-01 03:00:00,68.1,65.6,29.80,SE,135,0.0,0.0,92,-99.99,,,0.00,1-wire,2013-09-01 08:00:00,
2013-09-01 03:06:00,68.0,65.6,29.79,SE,130,1.0,6.0,92,-99.99,,,0.00,1-wire,2013-09-01 08:06:00,
2013-09-01 03:12:00,67.9,65.5,29.80,SE,130,0.0,3.0,92,-99.99,,,0.00,1-wire,2013-09-01 08:12:00,
2013-09-01 03:18:00,67.9,65.4,29.80,SE,130,0.0,0.0,92,-99.99,,,0.00,1-wire,2013-09-01 08:18:00,
2013-09-01 03:24:00,68.1,65.5,29.81,South,173,0.0,0.0,91,-99.99,,,0.00,1-wire,2013-09-01 08:24:00,
2013-09-01 03:30:00,67.9,65.3,29.81,South,173,0.0,0.0,91,-99.99,,,0.00,1-wire,2013-09-01 08:30:00,
2013-09-01 03:36:00,68.2,65.6,29.82,SSW,194,0.0,0.0,91,-99.99,,,0.00,1-wire,2013-09-01 08:36:00,
2013-09-01 03:41:00,68.0,65.2,29.82,SSW,194,0.0,0.0,91,-99.99,,,0.00,1-wire,2013-09-01 08:41:00,
2013-09-01 03:46:00,68.1,65.2,29.82,SSW,194,0.0,0.0,91,-99.99,,,0.00,1-wire,2013-09-01 08:46:00,
2013-09-01 03:51:00,68.1,65.0,29.82,WSW,248,0.0,0.0,90,-99.99,,,0.00,1-wire,2013-09-01 08:51:00,
2013-09-01 03:56:00,67.9,65.0,29.82,WSW,248,0.0,0.0,90,-99.99,,,0.00,1-wire,2013-09-01 08:56:00,
2013-09-01 04:01:00,67.5,64.4,29.82,WSW,248,0.0,0.0,90,-99.99,,,0.00,1-wire,2013-09-01 09:01:00,
2013-09-01 04:06:00,67.4,64.4,29.81,SSW,196,0.0,0.0,90,-99.99,,,0.00,1-wire,2013-09-01 09:06:00,
2013-09-01 04:11:00,67.4,64.5,29.81,SSW,196,0.0,0.0,90,-99.99,,,0.00,1-wire,2013-09-01 09:11:00,
2013-09-01 04:16:00,67.6,64.5,29.81,SSW,196,0.0,0.0,90,-99.99,,,0.00,1-wire,2013-09-01 09:16:00,
2013-09-01 04:21:00,67.3,64.2,29.79,SSW,196,0.0,0.0,90,-99.99,,,0.00,1-wire,2013-09-01 09:21:00,
2013-09-01 04:26:00,67.2,64.1,29.79,SSW,196,0.0,0.0,90,-99.99,,,0.00,1-wire,2013-09-01 09:26:00,
2013-09-01 04:31:00,66.8,63.7,29.79,SSW,196,0.0,0.0,90,-99.99,,,0.00,1-wire,2013-09-01 09:31:00,
2013-09-01 04:36:00,66.9,63.8,29.79,North,357,0.0,0.0,90,-99.99,,,0.00,1-wire,2013-09-01 09:36:00,
2013-09-01 04:41:00,67.0,63.8,29.79,North,357,0.0,0.0,90,-99.99,,,0.00,1-wire,2013-09-01 09:41:00,
2013-09-01 04:46:00,66.6,63.6,29.79,North,357,0.0,0.0,90,-99.99,,,0.00,1-wire,2013-09-01 09:46:00,
2013-09-01 04:51:00,66.8,63.9,29.79,North,7,0.0,0.0,90,-99.99,,,0.00,1-wire,2013-09-01 09:51:00,
2013-09-01 04:56:00,66.4,63.4,29.79,North,7,0.0,0.0,90,-99.99,,,0.00,1-wire,2013-09-01 09:56:00,
2013-09-01 05:01:00,66.7,63.6,29.80,North,7,0.0,0.0,90,-99.99,,,0.00,1-wire,2013-09-01 10:01:00,
2013-09-01 05:06:00,66.5,63.5,29.81,North,353,0.0,0.0,90,-99.99,,,0.00,1-wire,2013-09-01 10:06:00,
2013-09-01 05:11:00,66.3,63.4,29.81,North,353,0.0,0.0,90,-99.99,,,0.00,1-wire,2013-09-01 10:11:00,
2013-09-01 05:16:00,66.0,63.1,29.79,North,353,0.0,0.0,90,-99.99,,,0.00,1-wire,2013-09-01 10:16:00,
2013-09-01 05:21:00,66.4,63.5,29.81,South,184,0.0,0.0,91,-99.99,,,0.00,1-wire,2013-09-01 10:21:00,
2013-09-01 05:26:00,66.1,63.2,29.79,South,184,0.0,0.0,90,-99.99,,,0.00,1-wire,2013-09-01 10:26:00,
2013-09-01 05:31:00,66.2,63.5,29.79,South,184,0.0,0.0,91,-99.99,,,0.00,1-wire,2013-09-01 10:31:00,
2013-09-01 05:36:00,66.0,63.5,29.80,South,181,0.0,0.0,91,-99.99,,,0.00,1-wire,2013-09-01 10:36:00,
2013-09-01 05:41:00,66.0,63.7,29.79,South,181,0.0,3.0,92,-99.99,,,0.00,1-wire,2013-09-01 10:41:00,
2013-09-01 05:46:00,66.4,64.2,29.80,South,181,0.0,0.0,93,-99.99,,,0.00,1-wire,2013-09-01 10:46:00,
2013-09-01 05:51:00,66.2,64.1,29.79,SSW,196,0.0,0.0,93,-99.99,,,0.00,1-wire,2013-09-01 10:51:00,
2013-09-01 05:56:00,66.2,64.0,29.80,SSW,196,0.0,3.0,93,-99.99,,,0.00,1-wire,2013-09-01 10:56:00,
2013-09-01 06:01:00,66.2,63.9,29.80,SSW,196,1.0,3.0,93,-99.99,,,0.00,1-wire,2013-09-01 11:01:00,
2013-09-01 06:06:00,66.1,64.1,29.79,SSW,208,1.0,3.0,93,-99.99,,,0.00,1-wire,2013-09-01 11:06:00,
2013-09-01 06:11:00,66.2,64.3,29.79,SSW,208,0.0,0.0,94,-99.99,,,0.00,1-wire,2013-09-01 11:11:00,
2013-09-01 06:17:00,66.1,64.3,29.79,SSW,208,1.0,6.0,94,-99.99,,,0.00,1-wire,2013-09-01 11:17:00,
2013-09-01 06:23:00,66.2,64.5,29.79,SSW,207,0.0,3.0,94,-99.99,,,0.00,1-wire,2013-09-01 11:23:00,
2013-09-01 06:29:00,66.1,64.5,29.79,SSW,207,1.0,3.0,94,-99.99,,,0.00,1-wire,2013-09-01 11:29:00,
2013-09-01 06:35:00,66.4,64.8,29.80,SSW,207,0.0,3.0,95,-99.99,,,0.00,1-wire,2013-09-01 11:35:00,
2013-09-01 06:41:00,66.5,64.8,29.81,SW,217,2.0,6.0,94,-99.99,,,0.00,1-wire,2013-09-01 11:41:00,
2013-09-01 06:47:00,66.7,65.0,29.80,SW,217,0.0,3.0,94,-99.99,,,0.00,1-wire,2013-09-01 11:47:00,
2013-09-01 06:53:00,66.7,65.1,29.81,SW,229,1.0,3.0,94,-99.99,,,0.00,1-wire,2013-09-01 11:53:00,
2013-09-01 06:59:00,67.1,65.4,29.80,SW,229,0.0,3.0,94,-99.99,,,0.00,1-wire,2013-09-01 11:59:00,
2013-09-01 07:05:00,67.5,65.8,29.79,SW,229,2.0,9.0,94,-99.99,,,0.00,1-wire,2013-09-01 12:05:00,
2013-09-01 07:11:00,67.7,65.9,29.79,SSW,211,0.0,3.0,94,-99.99,,,0.00,1-wire,2013-09-01 12:11:00,
2013-09-01 07:17:00,68.1,66.1,29.79,SSW,211,0.0,3.0,93,-99.99,,,0.00,1-wire,2013-09-01 12:17:00,
2013-09-01 07:23:00,68.1,66.0,29.79,SW,223,1.0,3.0,93,-99.99,,,0.00,1-wire,2013-09-01 12:23:00,
2013-09-01 07:29:00,68.6,66.4,29.78,SW,223,0.0,0.0,93,-99.99,,,0.00,1-wire,2013-09-01 12:29:00,
2013-09-01 07:35:00,68.6,66.4,29.77,SW,223,0.0,0.0,93,-99.99,,,0.00,1-wire,2013-09-01 12:35:00,
2013-09-01 07:41:00,68.7,66.5,29.77,SW,219,0.0,0.0,93,-99.99,,,0.00,1-wire,2013-09-01 12:41:00,
2013-09-01 07:47:00,68.9,66.6,29.77,SW,219,1.0,3.0,93,-99.99,,,0.00,1-wire,2013-09-01 12:47:00,
2013-09-01 07:53:00,69.2,66.8,29.77,SSW,207,0.0,3.0,92,-99.99,,,0.00,1-wire,2013-09-01 12:53:00,
2013-09-01 07:59:00,69.5,66.9,29.78,SSW,207,0.0,0.0,91,-99.99,,,0.00,1-wire,2013-09-01 12:59:00,
2013-09-01 08:05:00,69.5,66.8,29.79,SSW,207,1.0,3.0,91,-99.99,,,0.00,1-wire,2013-09-01 13:05:00,
2013-09-01 08:11:00,69.6,66.7,29.79,SSW,210,0.0,3.0,90,-99.99,,,0.00,1-wire,2013-09-01 13:11:00,
2013-09-01 08:16:00,70.3,67.6,29.79,SSW,210,0.0,3.0,91,-99.99,,,0.00,1-wire,2013-09-01 13:16:00,
2013-09-01 08:21:00,70.2,67.4,29.81,NNW,331,0.0,0.0,91,-99.99,,,0.00,1-wire,2013-09-01 13:21:00,
2013-09-01 08:26:00,70.1,67.2,29.82,NNW,331,1.0,3.0,90,-99.99,,,0.00,1-wire,2013-09-01 13:26:00,
2013-09-01 08:31:00,70.2,67.2,29.82,NNW,331,0.0,3.0,90,-99.99,,,0.00,1-wire,2013-09-01 13:31:00,
2013-09-01 08:36:00,70.2,67.1,29.82,NNW,333,2.0,3.0,90,-99.99,,,0.00,1-wire,2013-09-01 13:36:00,
2013-09-01 08:42:00,70.5,67.2,29.82,NNW,333,1.0,3.0,90,-99.99,,,0.00,1-wire,2013-09-01 13:42:00,
2013-09-01 08:48:00,70.7,67.5,29.82,NNW,333,0.0,0.0,90,-99.99,,,0.00,1-wire,2013-09-01 13:48:00,
2013-09-01 08:54:00,71.1,67.8,29.82,NNW,335,1.0,3.0,89,-99.99,,,0.00,1-wire,2013-09-01 13:54:00,
2013-09-01 08:59:00,71.2,67.6,29.82,NNW,335,2.0,6.0,88,-99.99,,,0.00,1-wire,2013-09-01 13:59:00,
2013-09-01 09:04:00,71.4,67.7,29.82,NNW,335,0.0,3.0,88,-99.99,,,0.00,1-wire,2013-09-01 14:04:00,
2013-09-01 09:09:00,71.7,67.8,29.82,NW,304,0.0,0.0,88,-99.99,,,0.00,1-wire,2013-09-01 14:09:00,
2013-09-01 09:14:00,72.1,68.4,29.82,NW,304,1.0,3.0,88,-99.99,,,0.00,1-wire,2013-09-01 14:14:00,
2013-09-01 09:19:00,72.0,67.8,29.82,NW,304,1.0,3.0,86,-99.99,,,0.00,1-wire,2013-09-01 14:19:00,
2013-09-01 09:24:00,72.2,67.6,29.82,West,277,3.0,8.0,85,-99.99,,,0.00,1-wire,2013-09-01 14:24:00,
2013-09-01 09:29:00,72.8,68.1,29.82,West,277,0.0,0.0,85,-99.99,,,0.00,1-wire,2013-09-01 14:29:00,
2013-09-01 09:34:00,72.8,67.9,29.82,West,277,3.0,6.0,85,-99.99,,,0.00,1-wire,2013-09-01 14:34:00,
2013-09-01 09:39:00,72.4,67.5,29.82,West,278,1.0,3.0,85,-99.99,,,0.00,1-wire,2013-09-01 14:39:00,
2013-09-01 09:44:00,72.3,67.5,29.82,West,278,0.0,0.0,85,-99.99,,,0.00,1-wire,2013-09-01 14:44:00,
2013-09-01 09:49:00,72.6,67.8,29.82,West,278,1.0,3.0,85,-99.99,,,0.00,1-wire,2013-09-01 14:49:00,
2013-09-01 09:54:00,73.0,68.1,29.82,West,266,0.0,3.0,85,-99.99,,,0.00,1-wire,2013-09-01 14:54:00,
2013-09-01 09:59:00,73.1,68.2,29.82,West,266,0.0,3.0,85,-99.99,,,0.00,1-wire,2013-09-01 14:59:00,
2013-09-01 10:04:00,73.5,68.2,29.81,West,266,0.0,3.0,84,-99.99,,,0.00,1-wire,2013-09-01 15:04:00,
2013-09-01 10:09:00,73.6,67.9,29.81,WSW,246,2.0,6.0,83,-99.99,,,0.00,1-wire,2013-09-01 15:09:00,
2013-09-01 10:14:00,74.4,68.8,29.82,WSW,246,0.0,0.0,83,-99.99,,,0.00,1-wire,2013-09-01 15:14:00,
2013-09-01 10:19:00,74.5,68.6,29.81,WSW,246,0.0,0.0,82,-99.99,,,0.00,1-wire,2013-09-01 15:19:00,
2013-09-01 10:24:00,74.6,68.9,29.81,WSW,256,0.0,3.0,82,-99.99,,,0.00,1-wire,2013-09-01 15:24:00,
2013-09-01 10:29:00,74.4,68.4,29.81,WSW,256,1.0,3.0,82,-99.99,,,0.00,1-wire,2013-09-01 15:29:00,
2013-09-01 10:34:00,74.8,68.9,29.80,WSW,256,1.0,5.0,82,-99.99,,,0.00,1-wire,2013-09-01 15:34:00,
2013-09-01 10:39:00,75.3,69.0,29.80,West,265,0.0,3.0,81,-99.99,,,0.00,1-wire,2013-09-01 15:39:00,
2013-09-01 10:44:00,75.2,68.9,29.80,West,265,2.0,6.0,81,-99.99,,,0.00,1-wire,2013-09-01 15:44:00,
2013-09-01 10:49:00,76.1,69.8,29.79,West,265,0.0,3.0,81,-99.99,,,0.00,1-wire,2013-09-01 15:49:00,
2013-09-01 10:54:00,76.1,69.3,29.79,WSW,258,0.0,3.0,80,-99.99,,,0.00,1-wire,2013-09-01 15:54:00,
2013-09-01 10:59:00,75.5,68.5,29.79,WSW,258,1.0,3.0,79,-99.99,,,0.00,1-wire,2013-09-01 15:59:00,
2013-09-01 11:04:00,75.9,68.7,29.79,WSW,258,0.0,3.0,78,-99.99,,,0.00,1-wire,2013-09-01 16:04:00,
2013-09-01 11:09:00,76.2,69.1,29.78,WSW,247,0.0,3.0,79,-99.99,,,0.00,1-wire,2013-09-01 16:09:00,
2013-09-01 11:14:00,76.3,69.2,29.78,WSW,247,0.0,0.0,79,-99.99,,,0.00,1-wire,2013-09-01 16:14:00,
2013-09-01 11:19:00,76.3,69.1,29.79,WSW,247,0.0,0.0,79,-99.99,,,0.00,1-wire,2013-09-01 16:19:00,
2013-09-01 11:24:00,76.3,69.3,29.78,WSW,238,1.0,4.0,79,-99.99,,,0.00,1-wire,2013-09-01 16:24:00,
2013-09-01 11:29:00,75.9,69.2,29.78,WSW,238,0.0,0.0,80,-99.99,,,0.00,1-wire,2013-09-01 16:29:00,
2013-09-01 11:34:00,76.2,69.5,29.78,WSW,238,0.0,0.0,80,-99.99,,,0.00,1-wire,2013-09-01 16:34:00,
2013-09-01 11:39:00,76.0,69.3,29.78,WSW,247,0.0,3.0,80,-99.99,,,0.00,1-wire,2013-09-01 16:39:00,
2013-09-01 11:44:00,76.0,69.4,29.78,WSW,247,1.0,3.0,80,-99.99,,,0.00,1-wire,2013-09-01 16:44:00,
2013-09-01 11:49:00,76.6,70.0,29.78,WSW,247,0.0,3.0,80,-99.99,,,0.00,1-wire,2013-09-01 16:49:00,
2013-09-01 11:54:00,76.2,69.6,29.78,SW,225,0.0,3.0,80,-99.99,,,0.00,1-wire,2013-09-01 16:54:00,
2013-09-01 11:59:00,76.4,69.8,29.77,SW,225,0.0,3.0,80,-99.99,,,0.00,1-wire,2013-09-01 16:59:00,
2013-09-01 12:04:00,76.5,69.5,29.77,SW,225,1.0,3.0,79,-99.99,,,0.00,1-wire,2013-09-01 17:04:00,
2013-09-01 12:09:00,76.9,69.9,29.77,WNW,285,0.0,0.0,79,-99.99,,,0.00,1-wire,2013-09-01 17:09:00,
2013-09-01 12:14:00,76.9,69.8,29.77,WNW,285,1.0,6.0,79,-99.99,,,0.00,1-wire,2013-09-01 17:14:00,
2013-09-01 12:19:00,76.4,69.5,29.77,WNW,285,1.0,3.0,79,-99.99,,,0.00,1-wire,2013-09-01 17:19:00,
2013-09-01 12:24:00,77.5,70.5,29.77,SSW,211,0.0,0.0,79,-99.99,,,0.00,1-wire,2013-09-01 17:24:00,
2013-09-01 12:29:00,77.6,70.7,29.77,SSW,211,0.0,0.0,79,-99.99,,,0.00,1-wire,2013-09-01 17:29:00,
2013-09-01 12:34:00,77.7,70.5,29.77,SSW,211,0.0,0.0,79,-99.99,,,0.00,1-wire,2013-09-01 17:34:00,
2013-09-01 12:40:00,77.5,70.7,29.76,SW,228,0.0,3.0,80,-99.99,,,0.00,1-wire,2013-09-01 17:40:00,
2013-09-01 12:46:00,77.8,70.3,29.77,SW,228,0.0,3.0,78,-99.99,,,0.00,1-wire,2013-09-01 17:46:00,
2013-09-01 12:52:00,78.1,70.2,29.76,SW,219,3.0,6.0,77,-99.99,,,0.00,1-wire,2013-09-01 17:52:00,
2013-09-01 12:58:00,78.2,70.3,29.77,SW,219,0.0,0.0,77,-99.99,,,0.00,1-wire,2013-09-01 17:58:00,
2013-09-01 13:04:00,78.0,69.8,29.77,SW,219,2.0,6.0,76,-99.99,,,0.00,1-wire,2013-09-01 18:04:00,
2013-09-01 13:10:00,78.7,70.4,29.77,West,263,0.0,3.0,76,-99.99,,,0.00,1-wire,2013-09-01 18:10:00,
2013-09-01 13:16:00,78.9,70.5,29.77,West,263,2.0,3.0,76,-99.99,,,0.00,1-wire,2013-09-01 18:16:00,
2013-09-01 13:22:00,78.9,70.0,29.76,WSW,250,2.0,6.0,74,-99.99,,,0.00,1-wire,2013-09-01 18:22:00,
2013-09-01 13:27:00,79.4,70.7,29.76,WSW,250,0.0,3.0,75,-99.99,,,0.00,1-wire,2013-09-01 18:27:00,
2013-09-01 13:32:00,80.1,70.1,29.76,WSW,250,1.0,3.0,72,-99.99,,,0.00,1-wire,2013-09-01 18:32:00,
2013-09-01 13:37:00,81.3,71.1,29.75,WSW,257,1.0,3.0,71,-99.99,,,0.00,1-wire,2013-09-01 18:37:00,
2013-09-01 13:43:00,81.2,70.3,29.76,WSW,257,0.0,3.0,70,-99.99,,,0.00,1-wire,2013-09-01 18:43:00,
2013-09-01 13:49:00,82.2,70.7,29.76,WSW,257,1.0,5.0,68,-99.99,,,0.00,1-wire,2013-09-01 18:49:00,
2013-09-01 13:55:00,82.3,69.6,29.76,WSW,257,0.0,3.0,66,-99.99,,,0.00,1-wire,2013-09-01 18:55:00,
2013-09-01 14:00:00,81.5,70.0,29.76,WSW,257,2.0,6.0,68,-99.99,,,0.00,1-wire,2013-09-01 19:00:00,
2013-09-01 14:05:00,81.4,70.9,29.76,WSW,257,1.0,6.0,71,-99.99,,,0.00,1-wire,2013-09-01 19:05:00,
2013-09-01 14:10:00,81.3,69.6,29.76,WNW,298,0.0,3.0,68,-99.99,,,0.00,1-wire,2013-09-01 19:10:00,
2013-09-01 14:15:00,81.6,69.8,29.76,WNW,298,3.0,9.0,68,-99.99,,,0.00,1-wire,2013-09-01 19:15:00,
2013-09-01 14:21:00,81.6,68.7,29.75,WNW,293,1.0,3.0,65,-99.99,,,0.00,1-wire,2013-09-01 19:21:00,
2013-09-01 14:26:00,82.3,69.3,29.75,WNW,293,1.0,3.0,65,-99.99,,,0.00,1-wire,2013-09-01 19:26:00,
2013-09-01 14:31:00,82.3,69.0,29.75,WNW,293,3.0,6.0,64,-99.99,,,0.00,1-wire,2013-09-01 19:31:00,
2013-09-01 14:36:00,82.6,69.4,29.75,WNW,282,1.0,3.0,65,-99.99,,,0.00,1-wire,2013-09-01 19:36:00,
2013-09-01 14:41:00,82.6,68.9,29.75,WNW,282,4.0,8.0,64,-99.99,,,0.00,1-wire,2013-09-01 19:41:00,
2013-09-01 14:46:00,82.5,68.7,29.75,WNW,282,3.0,6.0,63,-99.99,,,0.00,1-wire,2013-09-01 19:46:00,
2013-09-01 14:51:00,82.6,68.4,29.75,West,278,2.0,6.0,62,-99.99,,,0.00,1-wire,2013-09-01 19:51:00,
2013-09-01 14:56:00,82.7,68.6,29.75,West,278,0.0,3.0,62,-99.99,,,0.00,1-wire,2013-09-01 19:56:00,
2013-09-01 15:01:00,83.0,69.2,29.75,West,278,1.0,5.0,63,-99.99,,,0.00,1-wire,2013-09-01 20:01:00,
2013-09-01 15:06:00,82.7,68.6,29.74,West,266,2.0,6.0,63,-99.99,,,0.00,1-wire,2013-09-01 20:06:00,
2013-09-01 15:11:00,83.0,68.8,29.74,West,266,1.0,3.0,62,-99.99,,,0.00,1-wire,2013-09-01 20:11:00,
2013-09-01 15:16:00,83.1,68.1,29.74,West,266,2.0,3.0,61,-99.99,,,0.00,1-wire,2013-09-01 20:16:00,
2013-09-01 15:21:00,83.1,68.8,29.74,West,270,3.0,6.0,62,-99.99,,,0.00,1-wire,2013-09-01 20:21:00,
2013-09-01 15:26:00,83.0,68.5,29.74,West,270,0.0,0.0,62,-99.99,,,0.00,1-wire,2013-09-01 20:26:00,
2013-09-01 15:31:00,83.2,67.9,29.74,West,270,2.0,6.0,60,-99.99,,,0.00,1-wire,2013-09-01 20:31:00,
2013-09-01 15:36:00,83.4,69.9,29.74,WNW,284,1.0,6.0,64,-99.99,,,0.00,1-wire,2013-09-01 20:36:00,
2013-09-01 15:41:00,83.3,68.4,29.75,WNW,284,3.0,6.0,61,-99.99,,,0.00,1-wire,2013-09-01 20:41:00,
2013-09-01 15:46:00,83.1,68.5,29.75,WNW,284,3.0,8.0,62,-99.99,,,0.00,1-wire,2013-09-01 20:46:00,
2013-09-01 15:51:00,83.3,68.5,29.74,WNW,286,3.0,8.0,61,-99.99,,,0.00,1-wire,2013-09-01 20:51:00,
2013-09-01 15:56:00,83.4,68.5,29.74,WNW,286,4.0,9.0,61,-99.99,,,0.00,1-wire,2013-09-01 20:56:00,
2013-09-01 16:01:00,82.9,68.6,29.74,WNW,286,4.0,9.0,62,-99.99,,,0.00,1-wire,2013-09-01 21:01:00,
2013-09-01 16:06:00,82.7,68.6,29.75,West,280,5.0,9.0,63,-99.99,,,0.00,1-wire,2013-09-01 21:06:00,
2013-09-01 16:11:00,82.4,68.3,29.74,West,280,3.0,9.0,63,-99.99,,,0.00,1-wire,2013-09-01 21:11:00,
2013-09-01 16:16:00,82.9,68.0,29.74,West,280,1.0,3.0,61,-99.99,,,0.00,1-wire,2013-09-01 21:16:00,
2013-09-01 16:21:00,83.4,68.1,29.74,West,279,5.0,9.0,60,-99.99,,,0.00,1-wire,2013-09-01 21:21:00,
2013-09-01 16:26:00,82.8,67.8,29.74,West,279,3.0,9.0,61,-99.99,,,0.00,1-wire,2013-09-01 21:26:00,
2013-09-01 16:31:00,82.5,66.3,29.74,West,279,5.0,6.0,58,-99.99,,,0.00,1-wire,2013-09-01 21:31:00,
2013-09-01 16:36:00,82.0,66.5,29.74,WNW,292,3.0,9.0,59,-99.99,,,0.00,1-wire,2013-09-01 21:36:00,
2013-09-01 16:41:00,82.1,66.7,29.75,WNW,292,3.0,11.0,60,-99.99,,,0.00,1-wire,2013-09-01 21:41:00,
2013-09-01 16:46:00,82.6,66.3,29.75,WNW,292,4.0,9.0,58,-99.99,,,0.00,1-wire,2013-09-01 21:46:00,
2013-09-01 16:51:00,83.1,66.6,29.75,WNW,288,3.0,6.0,58,-99.99,,,0.00,1-wire,2013-09-01 21:51:00,
2013-09-01 16:57:00,82.8,64.0,29.75,WNW,288,5.0,9.0,53,-99.99,,,0.00,1-wire,2013-09-01 21:57:00,
2013-09-01 17:03:00,83.5,64.1,29.75,WNW,288,1.0,6.0,52,-99.99,,,0.00,1-wire,2013-09-01 22:03:00,
2013-09-01 17:09:00,83.4,63.5,29.75,WNW,295,2.0,6.0,51,-99.99,,,0.00,1-wire,2013-09-01 22:09:00,
2013-09-01 17:14:00,83.1,61.2,29.75,WNW,295,5.0,12.0,48,-99.99,,,0.00,1-wire,2013-09-01 22:14:00,
2013-09-01 17:19:00,82.9,61.1,29.75,WNW,295,4.0,11.0,48,-99.99,,,0.00,1-wire,2013-09-01 22:19:00,
2013-09-01 17:24:00,83.1,60.8,29.75,WNW,300,3.0,9.0,47,-99.99,,,0.00,1-wire,2013-09-01 22:24:00,
2013-09-01 17:30:00,82.8,61.4,29.75,WNW,300,4.0,9.0,49,-99.99,,,0.00,1-wire,2013-09-01 22:30:00,
2013-09-01 17:36:00,83.1,60.4,29.75,WNW,300,1.0,3.0,46,-99.99,,,0.00,1-wire,2013-09-01 22:36:00,
2013-09-01 17:41:00,82.9,60.1,29.76,WNW,300,2.0,6.0,46,-99.99,,,0.00,1-wire,2013-09-01 22:41:00,
2013-09-01 17:46:00,82.7,59.5,29.77,WNW,300,4.0,12.0,46,-99.99,,,0.00,1-wire,2013-09-01 22:46:00,
2013-09-01 17:51:00,82.1,59.5,29.77,NW,304,2.0,9.0,46,-99.99,,,0.00,1-wire,2013-09-01 22:51:00,
2013-09-01 17:57:00,81.7,59.5,29.77,NW,304,2.0,6.0,47,-99.99,,,0.00,1-wire,2013-09-01 22:57:00,
2013-09-01 18:02:00,81.8,60.4,29.77,NW,304,1.0,6.0,48,-99.99,,,0.00,1-wire,2013-09-01 23:02:00,
2013-09-01 18:07:00,81.4,60.1,29.77,WNW,297,3.0,9.0,49,-99.99,,,0.00,1-wire,2013-09-01 23:07:00,
2013-09-01 18:12:00,81.2,59.9,29.77,WNW,297,2.0,6.0,49,-99.99,,,0.00,1-wire,2013-09-01 23:12:00,
2013-09-01 18:17:00,81.1,60.9,29.77,WNW,297,2.0,6.0,51,-99.99,,,0.00,1-wire,2013-09-01 23:17:00,
2013-09-01 18:23:00,80.4,60.6,29.77,NW,314,3.0,9.0,51,-99.99,,,0.00,1-wire,2013-09-01 23:23:00,
2013-09-01 18:28:00,80.3,60.3,29.78,NW,314,2.0,6.0,51,-99.99,,,0.00,1-wire,2013-09-01 23:28:00,
2013-09-01 18:33:00,80.0,59.6,29.78,NW,314,5.0,9.0,50,-99.99,,,0.00,1-wire,2013-09-01 23:33:00,
2013-09-01 18:38:00,80.1,60.2,29.78,NW,322,3.0,6.0,51,-99.99,,,0.00,1-wire,2013-09-01 23:38:00,
2013-09-01 18:43:00,79.9,60.0,29.78,NW,322,0.0,3.0,51,-99.99,,,0.00,1-wire,2013-09-01 23:43:00,
2013-09-01 18:49:00,79.3,60.1,29.78,NW,322,2.0,8.0,52,-99.99,,,0.00,1-wire,2013-09-01 23:49:00,
2013-09-01 18:55:00,79.4,60.9,29.79,NW,318,0.0,3.0,53,-99.99,,,0.00,1-wire,2013-09-01 23:55:00,
2013-09-01 19:01:00,78.5,58.9,29.79,NW,318,3.0,7.0,51,-99.99,,,0.00,1-wire,2013-09-02 00:01:00,
2013-09-01 19:06:00,78.6,59.7,29.79,NNW,330,0.0,3.0,52,-99.99,,,0.00,1-wire,2013-09-02 00:06:00,
2013-09-01 19:11:00,78.2,59.7,29.79,NNW,330,3.0,9.0,53,-99.99,,,0.00,1-wire,2013-09-02 00:11:00,
2013-09-01 19:16:00,77.8,59.2,29.79,NNW,330,4.0,9.0,53,-99.99,,,0.00,1-wire,2013-09-02 00:16:00,
2013-09-01 19:21:00,77.5,59.2,29.79,NW,324,2.0,6.0,53,-99.99,,,0.00,1-wire,2013-09-02 00:21:00,
2013-09-01 19:26:00,77.4,59.6,29.80,NW,324,2.0,9.0,54,-99.99,,,0.00,1-wire,2013-09-02 00:26:00,
2013-09-01 19:31:00,77.0,59.3,29.80,NW,324,3.0,6.0,54,-99.99,,,0.00,1-wire,2013-09-02 00:31:00,
2013-09-01 19:36:00,76.8,59.8,29.80,NW,324,2.0,6.0,56,-99.99,,,0.00,1-wire,2013-09-02 00:36:00,
2013-09-01 19:41:00,76.5,60.0,29.80,NW,324,2.0,6.0,57,-99.99,,,0.00,1-wire,2013-09-02 00:41:00,
2013-09-01 19:46:00,76.2,60.3,29.81,NW,324,2.0,6.0,58,-99.99,,,0.00,1-wire,2013-09-02 00:46:00,
2013-09-01 19:51:00,75.8,60.0,29.80,NNW,333,3.0,6.0,58,-99.99,,,0.00,1-wire,2013-09-02 00:51:00,
2013-09-01 19:56:00,75.5,60.0,29.81,NNW,333,1.0,3.0,59,-99.99,,,0.00,1-wire,2013-09-02 00:56:00,
2013-09-01 20:01:00,75.2,59.8,29.82,NNW,333,1.0,6.0,59,-99.99,,,0.00,1-wire,2013-09-02 01:01:00,
2013-09-01 20:06:00,75.2,60.2,29.81,NNW,334,1.0,3.0,60,-99.99,,,0.00,1-wire,2013-09-02 01:06:00,
2013-09-01 20:11:00,74.7,59.8,29.82,NNW,334,2.0,5.0,60,-99.99,,,0.00,1-wire,2013-09-02 01:11:00,
2013-09-01 20:16:00,74.7,59.9,29.82,NNW,334,0.0,3.0,60,-99.99,,,0.00,1-wire,2013-09-02 01:16:00,
2013-09-01 20:21:00,74.5,60.2,29.82,NNW,337,1.0,3.0,61,-99.99,,,0.00,1-wire,2013-09-02 01:21:00,
2013-09-01 20:26:00,74.5,60.4,29.82,NNW,337,0.0,3.0,62,-99.99,,,0.00,1-wire,2013-09-02 01:26:00,
2013-09-01 20:31:00,74.0,60.0,29.82,NNW,337,0.0,3.0,62,-99.99,,,0.00,1-wire,2013-09-02 01:31:00,
2013-09-01 20:36:00,74.0,60.4,29.82,NNW,339,0.0,0.0,63,-99.99,,,0.00,1-wire,2013-09-02 01:36:00,
2013-09-01 20:41:00,73.6,59.8,29.82,NNW,339,0.0,3.0,62,-99.99,,,0.00,1-wire,2013-09-02 01:41:00,
2013-09-01 20:46:00,73.3,59.5,29.83,NNW,339,0.0,3.0,62,-99.99,,,0.00,1-wire,2013-09-02 01:46:00,
2013-09-01 20:51:00,73.2,59.8,29.83,NNW,334,0.0,0.0,63,-99.99,,,0.00,1-wire,2013-09-02 01:51:00,
2013-09-01 20:56:00,72.9,59.4,29.83,NNW,334,0.0,0.0,63,-99.99,,,0.00,1-wire,2013-09-02 01:56:00,
2013-09-01 21:01:00,72.7,59.4,29.83,NNW,334,0.0,0.0,63,-99.99,,,0.00,1-wire,2013-09-02 02:01:00,
2013-09-01 21:06:00,72.6,59.3,29.84,NNW,338,0.0,0.0,63,-99.99,,,0.00,1-wire,2013-09-02 02:06:00,
2013-09-01 21:11:00,72.3,59.2,29.84,NNW,338,0.0,0.0,64,-99.99,,,0.00,1-wire,2013-09-02 02:11:00,
2013-09-01 21:16:00,72.0,59.2,29.84,NNW,338,0.0,0.0,64,-99.99,,,0.00,1-wire,2013-09-02 02:16:00,
2013-09-01 21:21:00,71.7,59.1,29.84,NNW,332,0.0,0.0,64,-99.99,,,0.00,1-wire,2013-09-02 02:21:00,
2013-09-01 21:26:00,71.6,59.4,29.84,NNW,332,0.0,0.0,66,-99.99,,,0.00,1-wire,2013-09-02 02:26:00,
2013-09-01 21:31:00,71.4,59.6,29.84,NNW,332,0.0,0.0,67,-99.99,,,0.00,1-wire,2013-09-02 02:31:00,
2013-09-01 21:36:00,71.1,59.8,29.84,NNW,332,0.0,0.0,67,-99.99,,,0.00,1-wire,2013-09-02 02:36:00,
2013-09-01 21:42:00,70.4,58.9,29.85,NNW,332,0.0,0.0,67,-99.99,,,0.00,1-wire,2013-09-02 02:42:00,
2013-09-01 21:48:00,70.2,58.8,29.85,NNW,332,0.0,0.0,67,-99.99,,,0.00,1-wire,2013-09-02 02:48:00,
2013-09-01 21:54:00,70.0,58.8,29.85,NNW,327,0.0,0.0,68,-99.99,,,0.00,1-wire,2013-09-02 02:54:00,
2013-09-01 22:00:00,69.8,58.8,29.86,NNW,327,0.0,0.0,68,-99.99,,,0.00,1-wire,2013-09-02 03:00:00,
2013-09-01 22:06:00,69.5,58.7,29.86,North,351,0.0,0.0,69,-99.99,,,0.00,1-wire,2013-09-02 03:06:00,
2013-09-01 22:12:00,69.5,59.6,29.86,North,351,0.0,0.0,71,-99.99,,,0.00,1-wire,2013-09-02 03:12:00,
2013-09-01 22:18:00,69.1,59.3,29.86,North,351,0.0,0.0,71,-99.99,,,0.00,1-wire,2013-09-02 03:18:00,
2013-09-01 22:24:00,68.7,59.1,29.86,NNW,335,0.0,0.0,71,-99.99,,,0.00,1-wire,2013-09-02 03:24:00,
2013-09-01 22:30:00,68.4,59.0,29.86,NNW,335,0.0,0.0,72,-99.99,,,0.00,1-wire,2013-09-02 03:30:00,
2013-09-01 22:36:00,68.1,58.9,29.86,NNW,335,0.0,0.0,72,-99.99,,,0.00,1-wire,2013-09-02 03:36:00,
2013-09-01 22:42:00,67.9,58.4,29.86,NNW,335,0.0,0.0,72,-99.99,,,0.00,1-wire,2013-09-02 03:42:00,
2013-09-01 22:48:00,68.0,58.7,29.86,NNW,335,0.0,0.0,72,-99.99,,,0.00,1-wire,2013-09-02 03:48:00,
2013-09-01 22:54:00,67.7,58.5,29.86,NNW,334,0.0,0.0,73,-99.99,,,0.00,1-wire,2013-09-02 03:54:00,
2013-09-01 23:00:00,67.6,58.2,29.86,NNW,334,0.0,3.0,72,-99.99,,,0.00,1-wire,2013-09-02 04:00:00,
2013-09-01 23:01:00,67.5,58.1,29.86,NNW,334,0.0,0.0,72,-99.99,,,0.00,1-wire,2013-09-02 04:01:00,
2013-09-01 23:02:00,67.4,57.9,29.86,NNW,334,0.0,0.0,72,-99.99,,,0.00,1-wire,2013-09-02 04:02:00,
2013-09-01 23:04:00,67.6,58.1,29.86,NNW,334,0.0,0.0,72,-99.99,,,0.00,1-wire,2013-09-02 04:04:00,
2013-09-01 23:06:00,67.4,58.0,29.87,NNW,340,0.0,3.0,72,-99.99,,,0.00,1-wire,2013-09-02 04:06:00,
2013-09-01 23:11:00,67.5,58.3,29.86,NNW,340,0.0,0.0,72,-99.99,,,0.00,1-wire,2013-09-02 04:11:00,
2013-09-01 23:12:00,67.5,58.5,29.86,NNW,340,0.0,3.0,73,-99.99,,,0.00,1-wire,2013-09-02 04:12:00,
2013-09-01 23:17:00,67.6,58.8,29.86,NNW,340,0.0,0.0,73,-99.99,,,0.00,1-wire,2013-09-02 04:17:00,
2013-09-01 23:22:00,67.5,58.7,29.86,NNW,339,0.0,0.0,73,-99.99,,,0.00,1-wire,2013-09-02 04:22:00,
2013-09-01 23:27:00,67.4,58.7,29.86,NNW,339,0.0,0.0,74,-99.99,,,0.00,1-wire,2013-09-02 04:27:00,
2013-09-01 23:32:00,67.3,58.8,29.86,NNW,339,0.0,0.0,74,-99.99,,,0.00,1-wire,2013-09-02 04:32:00,
2013-09-01 23:37:00,67.2,58.4,29.86,NNW,338,0.0,0.0,73,-99.99,,,0.00,1-wire,2013-09-02 04:37:00,
2013-09-01 23:43:00,67.2,58.9,29.86,NNW,338,1.0,3.0,75,-99.99,,,0.00,1-wire,2013-09-02 04:43:00,
2013-09-01 23:49:00,67.2,58.5,29.86,NNW,338,0.0,0.0,74,-99.99,,,0.00,1-wire,2013-09-02 04:49:00,
2013-09-01 23:55:00,67.2,58.4,29.86,NNW,341,0.0,0.0,74,-99.99,,,0.00,1-wire,2013-09-02 04:55:00,